Location: Bessat
(45.8735°N, 1.9924°E)
Time: 20:38:56
(UTC+00:00)

USA 306 - Pass Details

Date: 11 May 2021
Orbit: 565 x 575 km, 54.0° (Epoch: 11 May)

Event Time Altitude Azimuth Distance (km) Brightness Sun altitude
Rises 20:40:27 0° 303° (WNW) 2,772 8.2 -13.2°
Reaches altitude 10° 20:42:45 10° 309° (NW) 1,874 7.0 -13.5°
Maximum altitude 20:46:55 50° 25° (NNE) 731 3.5 -14.0°
Enters shadow 20:49:59 17° 97° (E) 1,470 4.5 -14.4°
